Simultaneous Nadir Overpasses (SNOs) Predictions

Prediction of SNOs between TERRA and METOP-C Satellite Orbit:

Table of predicted SNOs for the next 14.0 days since TLE Epoch: 6/6/2020
Index Date (TERRA) Time (TERRA) Lat,Lon (TERRA) SZA (TERRA ) Date (METOP-C) Time (METOP-C) Lat,Lon (METOP-C) SZA (METOP-C ) Distance(km) Time Diff (sec)
1 06/06/2020 06:28:20 81.30, 130.22 61.57 06/06/2020 06:28:01 81.30, 130.02 61.54 3.25 19
2 06/06/2020 07:17:46 -81.31, -61.89 118.40 06/06/2020 07:18:41 -81.31, -62.02 118.39 2.16 55
3 06/09/2020 02:02:36 81.30,-163.31 61.31 06/09/2020 02:02:23 81.31,-163.37 61.30 1.06 13
4 06/09/2020 02:52:02 -81.32, 4.62 118.65 06/09/2020 02:53:03 -81.31, 4.62 118.63 0.27 61
5 06/11/2020 21:36:53 81.30, -96.85 61.10 06/11/2020 21:36:45 81.31, -96.77 61.11 1.56 8
6 06/11/2020 22:26:19 -81.32, 71.11 118.86 06/11/2020 22:27:25 -81.32, 71.25 118.81 2.38 66
7 06/14/2020 17:11:10 81.30, -30.42 60.93 06/14/2020 17:11:07 81.30, -30.58 60.92 2.66 3
8 06/14/2020 18:00:36 -81.32, 137.58 119.02 06/14/2020 18:01:47 -81.31, 137.46 119.00 2.09 71
9 06/17/2020 11:56:03 -81.30,-131.70 119.19 06/17/2020 11:54:50 -81.30,-131.62 119.21 1.38 73
10 06/17/2020 12:45:29 81.30, 35.99 60.82 06/17/2020 12:45:29 81.31, 35.99 60.83 0.56 0




NCC Satellite Simultaneous Nadir Overpasses (SNOs) Prediction Service
